STARLINK-3291, 50175

Orbit data source: Space-Track

STARLINK-3291, 50175 is a payload satellite owned by SpaceX/Seattle (US) in LEO that was launched on Sat, 18 Dec 2021 UTC via an FALCON 9 launch vehicle from the Air Force Western Test Range (AFWTR). Payload-class satellites include a variety of spacecraft equipped with specific instruments for various scientific and technological missions. These include communications satellites like Starlink; space stations such as the ISS; scientific satellites like the Hubble; Earth observation satellites from companies like Planet Labs, Umbra, and HawkEye 360; GPS; miniature CubeSats for education and research; and military/defense satellites.

Loading next visibility...
Identifier
50175, 2021-125V
Orbit
LEO
Country
Flag of USUS
Related business
Manufacturer
SpaceX/Seattle
Mission
Operational Commercial Communications
Bus & Motor
STARLINK, Unknown motor
Mass
290 kg wet, ~270 kg dry
Launch date (UTC)
2021-12-18 (5 years ago)
Launch vehicle
FALCON 9
Launch site
Air Force Western Test Range (AFWTR)
Object type
Payload
Rocket body
Debris
Shape & HBR
Box + 1 Pan, 10.1 m
Radar Cross Section
13.562 m², Large (>1 m²)

Expand to show TLE details & history
Last TLE update: 3 hours ago

TLE from 3 hours ago
0 STARLINK-3291
1 50175U 21125V   26170.18619795 -.00000019  00000-0  16889-4 0  9998
2 50175  53.1598 153.3781 0001363  79.2084 280.9061 15.08830349251928
Epoch: 2026-06-19T04:28Z
TLE epoch observation values (Epoch: 2026-06-19T04:28:07.502Z)
Latitude
-0.00003°
Longitude
178.92803°
Altitude
540.486 km
Speed
7.593 km/s
True Right ascension
10h 13m 30s
True Declination
0° 00' 00"
Sunlit
Object was in daylight at epoch
Visualization orbit readout
Latitude
Unknown
Longitude
Unknown
Altitude
Unknown
Speed
Unknown
Apparent Right ascension
Unknown
Apparent Declination
Unknown
Sunlit
N/A
Visualization observer readout
Local Sidereal Time
18:37:46
Azimuth
Unknown
Elevation
Unknown
Doppler factor
Unknown
Orbital elements
Apogee altitude
540.97 km
Perigee altitude
539.084 km
Semi-major axis
6,918.164 km
Eccentricity
0.00014
Inclination
53.1598°
RAAN
153.3781°
Arg. of periapsis
79.2084°
True anomaly
280.89076°
Mean anomaly
280.9061°
Eccentric anomaly
280.89843°
Mean motion
3.77187 °/min
Orbital period
95.44 mins
BSTAR
0.000016889
Loading maneuver chart data...
Computing Atmospheric mass density...
Loading historical data...
Loading historical data...
Loading historical data...
Loading historical data...
Loading historical data...
Loading historical data...
Loading historical data...

Documentation

Showing up to 5 results
|